Simultaneous Nadir Overpasses (SNOs) Predictions

Prediction of SNOs between AQUA and METOP-B Satellite Orbit:

Table of predicted SNOs for the next 14.0 days since TLE Epoch: 12/26/2020
Index Date (AQUA) Time (AQUA) Lat,Lon (AQUA) SZA (AQUA ) Date (METOP-B) Time (METOP-B) Lat,Lon (METOP-B) SZA (METOP-B ) Distance(km) Time Diff (sec)
1 12/27/2020 18:48:30 73.75,-107.77 97.02 12/27/2020 18:47:40 73.77,-107.80 97.04 1.98 50
2 12/27/2020 19:37:57 -73.84, 59.68 82.90 12/27/2020 19:38:20 -73.83, 59.69 82.90 0.43 23
3 12/30/2020 14:22:46 73.78, -41.41 96.89 12/30/2020 14:22:04 73.78, -41.38 96.89 1.60 42
4 12/30/2020 15:12:13 -73.86, 126.05 83.03 12/30/2020 15:12:44 -73.85, 126.13 83.05 2.89 31
5 01/02/2021 09:57:01 73.78, 25.04 96.66 01/02/2021 09:56:28 73.78, 25.04 96.68 0.64 33
6 01/02/2021 10:46:28 -73.85,-167.48 83.27 01/02/2021 10:47:08 -73.86,-167.44 83.26 1.72 40
7 01/05/2021 05:31:15 73.78, 91.48 96.38 01/05/2021 05:30:51 73.79, 91.46 96.40 1.28 24
8 01/05/2021 06:20:42 -73.84,-101.02 83.56 01/05/2021 06:21:31 -73.87,-101.01 83.53 3.17 49
9 01/08/2021 00:15:54 -73.33, -8.76 84.44 01/08/2021 00:14:45 -73.30, -10.59 84.39 58.53 69
10 01/08/2021 01:05:30 73.79, 157.90 96.05 01/08/2021 01:05:15 73.79, 157.86 96.06 1.13 15
11 01/08/2021 01:54:57 -73.85, -34.59 83.90 01/08/2021 01:55:55 -73.88, -34.59 83.87 3.77 58



Historial Predications of SNOs between AQUA and METOP-B
